{"data":{"norad_id":46058,"epoch":"2026-09-20T01:34:54.998112Z","epoch_age_seconds":55854,"freshness":"FRESH","line1":"1 46058U 20055AH  26263.06591433  .00000479  00000+0  27208-4 0  9997","line2":"2 46058  53.1573 290.8722 0001480  90.8057 269.3113 15.31702192338832","mean_motion":15.31702192,"eccentricity":0.000148,"inclination_deg":53.1573,"raan_deg":290.8722,"arg_perigee_deg":90.8057,"mean_anomaly_deg":269.3113,"bstar":2.7208e-5,"rev_number":33883,"period_min":94.013053419982,"perigee_km":469.71982816728,"apogee_km":471.74709382373,"semimajor_km":6848.8704609955,"source":"CELESTRAK","updated_at":"2026-09-20T09:00:38.462998Z"}}